Wetterdaten: Sonntag, 25.02.2018
Datum Zeit Temp. Auen Feucht Auen Luftdruck Regen Richtung Richtung Windben
25.02.2018 00:00 -6,4 C 76 % 1023,6 hPa 0,0 mm O-NO 68 29,0 km/h (5 Bft)
25.02.2018 00:05 -6,4 C 76 % 1023,6 hPa 0,0 mm O-NO 63 27,4 km/h (4 Bft)
25.02.2018 00:10 -6,5 C 76 % 1023,7 hPa 0,0 mm O-NO 73 25,7 km/h (4 Bft)
25.02.2018 00:15 -6,6 C 76 % 1023,7 hPa 0,0 mm NO 56 27,4 km/h (4 Bft)
25.02.2018 00:20 -6,6 C 77 % 1023,7 hPa 0,0 mm O-NO 67 25,7 km/h (4 Bft)
25.02.2018 00:25 -6,7 C 76 % 1023,7 hPa 0,0 mm O-NO 65 24,1 km/h (4 Bft)
25.02.2018 00:30 -6,7 C 77 % 1023,7 hPa 0,0 mm O-NO 76 27,4 km/h (4 Bft)
25.02.2018 00:35 -6,7 C 77 % 1023,8 hPa 0,0 mm O-NO 76 25,7 km/h (4 Bft)
25.02.2018 00:40 -6,8 C 77 % 1023,8 hPa 0,0 mm O-NO 70 22,5 km/h (4 Bft)
25.02.2018 00:45 -6,8 C 78 % 1023,8 hPa 0,0 mm O 101 24,1 km/h (4 Bft)
25.02.2018 00:50 -6,8 C 78 % 1023,8 hPa 0,0 mm O 83 20,9 km/h (4 Bft)
25.02.2018 00:55 -6,9 C 78 % 1023,7 hPa 0,0 mm NO 49 22,5 km/h (4 Bft)
25.02.2018 00:59 -6,9 C 78 % 1023,7 hPa 0,0 mm O-NO 74 24,1 km/h (4 Bft)
25.02.2018 01:05 -6,9 C 78 % 1023,7 hPa 0,0 mm O-NO 74 20,9 km/h (4 Bft)
25.02.2018 01:10 -7,0 C 78 % 1023,7 hPa 0,0 mm O-NO 74 24,1 km/h (4 Bft)
25.02.2018 01:15 -7,0 C 78 % 1023,7 hPa 0,0 mm O 79 20,9 km/h (4 Bft)
25.02.2018 01:20 -7,1 C 79 % 1023,7 hPa 0,0 mm O-NO 71 22,5 km/h (4 Bft)
25.02.2018 01:25 -7,1 C 79 % 1023,7 hPa 0,0 mm O-NO 63 24,1 km/h (4 Bft)
25.02.2018 01:30 -7,2 C 79 % 1023,8 hPa 0,0 mm O-NO 71 24,1 km/h (4 Bft)
25.02.2018 01:35 -7,2 C 79 % 1023,9 hPa 0,0 mm NO 49 24,1 km/h (4 Bft)
25.02.2018 01:40 -7,3 C 79 % 1023,9 hPa 0,0 mm O-NO 77 20,9 km/h (4 Bft)
25.02.2018 01:45 -7,3 C 79 % 1023,9 hPa 0,0 mm O 90 24,1 km/h (4 Bft)
25.02.2018 01:50 -7,3 C 80 % 1024,0 hPa 0,0 mm O-NO 63 17,7 km/h (3 Bft)
25.02.2018 01:55 -7,4 C 80 % 1023,9 hPa 0,0 mm O-NO 73 17,7 km/h (3 Bft)
25.02.2018 01:59 -7,4 C 80 % 1023,9 hPa 0,0 mm O-NO 72 19,3 km/h (3 Bft)
25.02.2018 02:05 -7,3 C 80 % 1023,9 hPa 0,0 mm O-NO 57 22,5 km/h (4 Bft)
25.02.2018 02:10 -7,3 C 80 % 1023,8 hPa 0,0 mm O 90 19,3 km/h (3 Bft)
25.02.2018 02:15 -7,3 C 80 % 1023,8 hPa 0,0 mm O 81 22,5 km/h (4 Bft)
25.02.2018 02:20 -7,4 C 80 % 1023,8 hPa 0,0 mm NO 46 24,1 km/h (4 Bft)
25.02.2018 02:25 -7,4 C 80 % 1023,8 hPa 0,0 mm NO 39 17,7 km/h (3 Bft)
25.02.2018 02:30 -7,6 C 80 % 1023,7 hPa 0,0 mm O-NO 75 20,9 km/h (4 Bft)
25.02.2018 02:35 -7,6 C 80 % 1023,6 hPa 0,0 mm O-NO 69 20,9 km/h (4 Bft)
25.02.2018 02:40 -7,7 C 80 % 1023,6 hPa 0,0 mm O 87 17,7 km/h (3 Bft)
25.02.2018 02:44 -7,7 C 81 % 1023,6 hPa 0,0 mm NO 39 22,5 km/h (4 Bft)
25.02.2018 02:50 -7,7 C 81 % 1023,6 hPa 0,0 mm O-NO 69 16,1 km/h (3 Bft)
25.02.2018 02:55 -7,7 C 81 % 1023,7 hPa 0,0 mm O-NO 59 16,1 km/h (3 Bft)
25.02.2018 03:00 -7,7 C 81 % 1023,7 hPa 0,0 mm O 80 16,1 km/h (3 Bft)
25.02.2018 03:05 -7,7 C 81 % 1023,8 hPa 0,0 mm NO 48 14,5 km/h (3 Bft)
25.02.2018 03:10 -7,7 C 81 % 1023,7 hPa 0,0 mm NO 55 17,7 km/h (3 Bft)
25.02.2018 03:15 -7,7 C 81 % 1023,7 hPa 0,0 mm O-NO 75 17,7 km/h (3 Bft)
25.02.2018 03:20 -7,7 C 81 % 1023,7 hPa 0,0 mm O-NO 78 17,7 km/h (3 Bft)
25.02.2018 03:25 -7,8 C 81 % 1023,7 hPa 0,0 mm NO 38 19,3 km/h (3 Bft)
25.02.2018 03:30 -7,8 C 82 % 1023,8 hPa 0,0 mm NO 53 17,7 km/h (3 Bft)
25.02.2018 03:35 -7,9 C 81 % 1023,8 hPa 0,0 mm O-NO 61 20,9 km/h (4 Bft)
25.02.2018 03:40 -8,0 C 82 % 1023,8 hPa 0,0 mm O-NO 77 17,7 km/h (3 Bft)
25.02.2018 03:45 -8,2 C 82 % 1023,8 hPa 0,0 mm O-NO 78 16,1 km/h (3 Bft)
25.02.2018 03:50 -8,3 C 82 % 1023,9 hPa 0,0 mm O-NO 73 19,3 km/h (3 Bft)
25.02.2018 03:55 -8,4 C 82 % 1023,9 hPa 0,0 mm O-NO 74 17,7 km/h (3 Bft)
25.02.2018 04:00 -8,5 C 82 % 1023,8 hPa 0,0 mm O-NO 61 20,9 km/h (4 Bft)
25.02.2018 04:05 -8,6 C 82 % 1023,9 hPa 0,0 mm O-NO 74 20,9 km/h (4 Bft)
25.02.2018 04:10 -8,6 C 82 % 1024,0 hPa 0,0 mm O-NO 71 20,9 km/h (4 Bft)
25.02.2018 04:15 -8,6 C 82 % 1024,0 hPa 0,0 mm O-NO 66 19,3 km/h (3 Bft)
25.02.2018 04:20 -8,5 C 82 % 1024,0 hPa 0,0 mm O-NO 64 17,7 km/h (3 Bft)
25.02.2018 04:25 -8,5 C 82 % 1023,9 hPa 0,0 mm O-NO 64 22,5 km/h (4 Bft)
25.02.2018 04:30 -8,5 C 82 % 1024,0 hPa 0,0 mm O-NO 71 20,9 km/h (4 Bft)
25.02.2018 04:35 -8,5 C 82 % 1024,0 hPa 0,0 mm NO 54 22,5 km/h (4 Bft)
25.02.2018 04:40 -8,6 C 82 % 1023,9 hPa 0,0 mm NO 54 24,1 km/h (4 Bft)
25.02.2018 04:44 -8,7 C 82 % 1023,9 hPa 0,0 mm O-NO 64 20,9 km/h (4 Bft)
25.02.2018 04:50 -8,9 C 82 % 1023,9 hPa 0,0 mm O 83 22,5 km/h (4 Bft)
25.02.2018 04:55 -9,0 C 82 % 1023,9 hPa 0,0 mm O-NO 77 20,9 km/h (4 Bft)
25.02.2018 05:00 -9,1 C 82 % 1023,9 hPa 0,0 mm NO 55 22,5 km/h (4 Bft)
25.02.2018 05:05 -9,2 C 83 % 1024,0 hPa 0,0 mm NO 40 20,9 km/h (4 Bft)
25.02.2018 05:10 -9,2 C 83 % 1024,0 hPa 0,0 mm O-NO 59 19,3 km/h (3 Bft)
25.02.2018 05:15 -9,2 C 83 % 1024,1 hPa 0,0 mm NO 51 20,9 km/h (4 Bft)
25.02.2018 05:20 -9,2 C 83 % 1024,1 hPa 0,0 mm O-NO 71 17,7 km/h (3 Bft)
25.02.2018 05:25 -9,2 C 83 % 1024,0 hPa 0,0 mm O-NO 59 20,9 km/h (4 Bft)
25.02.2018 05:30 -9,3 C 83 % 1024,0 hPa 0,0 mm O-NO 66 20,9 km/h (4 Bft)
25.02.2018 05:35 -9,3 C 83 % 1024,0 hPa 0,0 mm O-NO 68 22,5 km/h (4 Bft)
25.02.2018 05:40 -9,3 C 83 % 1024,1 hPa 0,0 mm O-NO 63 24,1 km/h (4 Bft)
25.02.2018 05:45 -9,4 C 83 % 1024,1 hPa 0,0 mm O-NO 57 19,3 km/h (3 Bft)
25.02.2018 05:50 -9,4 C 83 % 1024,1 hPa 0,0 mm O 96 25,7 km/h (4 Bft)
25.02.2018 05:55 -9,5 C 82 % 1024,1 hPa 0,0 mm O-NO 59 20,9 km/h (4 Bft)
25.02.2018 06:00 -9,5 C 83 % 1024,2 hPa 0,0 mm O-NO 65 17,7 km/h (3 Bft)
25.02.2018 06:05 -9,5 C 83 % 1024,1 hPa 0,0 mm O-NO 67 20,9 km/h (4 Bft)
25.02.2018 06:10 -9,6 C 82 % 1024,2 hPa 0,0 mm O 82 17,7 km/h (3 Bft)
25.02.2018 06:15 -9,6 C 83 % 1024,1 hPa 0,0 mm O-NO 70 20,9 km/h (4 Bft)
25.02.2018 06:20 -9,6 C 83 % 1024,2 hPa 0,0 mm O-NO 59 17,7 km/h (3 Bft)
25.02.2018 06:25 -9,6 C 83 % 1024,2 hPa 0,0 mm O 88 17,7 km/h (3 Bft)
25.02.2018 06:30 -9,7 C 83 % 1024,3 hPa 0,0 mm O-NO 70 16,1 km/h (3 Bft)
25.02.2018 06:35 -9,7 C 83 % 1024,2 hPa 0,0 mm O-NO 74 20,9 km/h (4 Bft)
25.02.2018 06:40 -9,8 C 83 % 1024,3 hPa 0,0 mm O-NO 64 17,7 km/h (3 Bft)
25.02.2018 06:45 -9,7 C 83 % 1024,4 hPa 0,0 mm O-NO 69 19,3 km/h (3 Bft)
25.02.2018 06:50 -9,7 C 83 % 1024,4 hPa 0,0 mm O-NO 69 14,5 km/h (3 Bft)
25.02.2018 06:55 -9,8 C 83 % 1024,4 hPa 0,0 mm O 85 16,1 km/h (3 Bft)
25.02.2018 07:00 -9,8 C 83 % 1024,5 hPa 0,0 mm O-SO 103 20,9 km/h (4 Bft)
25.02.2018 07:05 -9,8 C 83 % 1024,5 hPa 0,0 mm O-NO 63 20,9 km/h (4 Bft)
25.02.2018 07:10 -9,8 C 83 % 1024,5 hPa 0,0 mm O-NO 67 22,5 km/h (4 Bft)
25.02.2018 07:15 -9,8 C 83 % 1024,6 hPa 0,0 mm O 87 24,1 km/h (4 Bft)
25.02.2018 07:20 -9,8 C 83 % 1024,4 hPa 0,0 mm O-NO 73 24,1 km/h (4 Bft)
25.02.2018 07:25 -9,8 C 83 % 1024,6 hPa 0,0 mm O-NO 65 27,4 km/h (4 Bft)
25.02.2018 07:30 -9,8 C 83 % 1024,7 hPa 0,0 mm O-NO 64 22,5 km/h (4 Bft)
25.02.2018 07:35 -9,9 C 83 % 1024,7 hPa 0,0 mm O-NO 72 22,5 km/h (4 Bft)
25.02.2018 07:40 -9,9 C 83 % 1024,8 hPa 0,0 mm O-NO 68 25,7 km/h (4 Bft)
25.02.2018 07:45 -9,9 C 83 % 1024,8 hPa 0,0 mm O-NO 61 22,5 km/h (4 Bft)
25.02.2018 07:50 -9,9 C 83 % 1024,8 hPa 0,0 mm O-NO 77 24,1 km/h (4 Bft)
25.02.2018 07:55 -9,9 C 83 % 1024,8 hPa 0,0 mm O-NO 63 20,9 km/h (4 Bft)
25.02.2018 08:00 -9,9 C 83 % 1024,8 hPa 0,0 mm O-NO 74 20,9 km/h (4 Bft)
25.02.2018 08:05 -9,8 C 83 % 1024,7 hPa 0,0 mm O-NO 67 22,5 km/h (4 Bft)
25.02.2018 08:10 -9,7 C 83 % 1024,7 hPa 0,0 mm O-NO 61 24,1 km/h (4 Bft)
25.02.2018 08:15 -9,6 C 83 % 1024,7 hPa 0,0 mm O-NO 68 24,1 km/h (4 Bft)
25.02.2018 08:20 -9,5 C 82 % 1024,7 hPa 0,0 mm O-NO 71 19,3 km/h (3 Bft)
25.02.2018 08:25 -9,4 C 83 % 1024,7 hPa 0,0 mm O-NO 69 19,3 km/h (3 Bft)
25.02.2018 08:30 -9,4 C 82 % 1024,7 hPa 0,0 mm O-NO 63 20,9 km/h (4 Bft)
25.02.2018 08:35 -9,3 C 82 % 1024,8 hPa 0,0 mm O-NO 76 19,3 km/h (3 Bft)
25.02.2018 08:40 -9,2 C 82 % 1024,8 hPa 0,0 mm O-NO 61 20,9 km/h (4 Bft)
25.02.2018 08:45 -9,2 C 81 % 1024,8 hPa 0,0 mm O-NO 67 19,3 km/h (3 Bft)
25.02.2018 08:50 -9,3 C 81 % 1024,8 hPa 0,0 mm O-NO 77 17,7 km/h (3 Bft)
25.02.2018 08:55 -9,3 C 81 % 1024,7 hPa 0,0 mm O-NO 60 22,5 km/h (4 Bft)
25.02.2018 09:00 -9,2 C 82 % 1024,8 hPa 0,0 mm N-NO 27 17,7 km/h (3 Bft)
25.02.2018 09:05 -9,1 C 81 % 1024,8 hPa 0,0 mm O-NO 65 17,7 km/h (3 Bft)
25.02.2018 09:10 -8,7 C 81 % 1024,7 hPa 0,0 mm O-NO 61 20,9 km/h (4 Bft)
25.02.2018 09:15 -8,7 C 80 % 1024,8 hPa 0,0 mm O-NO 76 17,7 km/h (3 Bft)
25.02.2018 09:20 -8,7 C 80 % 1024,8 hPa 0,0 mm NO 55 22,5 km/h (4 Bft)
25.02.2018 09:25 -8,2 C 80 % 1024,8 hPa 0,0 mm O-NO 69 24,1 km/h (4 Bft)
25.02.2018 09:29 -8,3 C 78 % 1024,8 hPa 0,0 mm O-NO 75 22,5 km/h (4 Bft)
25.02.2018 09:35 -8,6 C 79 % 1024,9 hPa 0,0 mm O-NO 67 20,9 km/h (4 Bft)
25.02.2018 09:40 -8,5 C 79 % 1024,9 hPa 0,0 mm NO 44 22,5 km/h (4 Bft)
25.02.2018 09:44 -8,5 C 79 % 1024,9 hPa 0,0 mm O-NO 74 20,9 km/h (4 Bft)
25.02.2018 09:50 -8,6 C 78 % 1024,9 hPa 0,0 mm O-NO 57 22,5 km/h (4 Bft)
25.02.2018 09:55 -8,4 C 79 % 1024,8 hPa 0,0 mm NO 56 20,9 km/h (4 Bft)
25.02.2018 10:00 -8,4 C 78 % 1024,9 hPa 0,0 mm O-NO 71 25,7 km/h (4 Bft)
25.02.2018 10:05 -8,0 C 79 % 1024,9 hPa 0,0 mm O-NO 61 20,9 km/h (4 Bft)
25.02.2018 10:10 -7,6 C 77 % 1024,8 hPa 0,0 mm NO 56 20,9 km/h (4 Bft)
25.02.2018 10:15 -7,6 C 76 % 1024,8 hPa 0,0 mm O-NO 63 22,5 km/h (4 Bft)
25.02.2018 10:20 -7,2 C 76 % 1024,8 hPa 0,0 mm O-NO 64 20,9 km/h (4 Bft)
25.02.2018 10:25 -7,5 C 76 % 1024,7 hPa 0,0 mm O-SO 102 24,1 km/h (4 Bft)
25.02.2018 10:30 -7,5 C 77 % 1024,8 hPa 0,0 mm O-SO 119 22,5 km/h (4 Bft)
25.02.2018 10:35 -7,1 C 76 % 1024,8 hPa 0,0 mm O-NO 65 20,9 km/h (4 Bft)
25.02.2018 10:40 -7,2 C 75 % 1024,7 hPa 0,0 mm O 98 20,9 km/h (4 Bft)
25.02.2018 10:45 -7,1 C 78 % 1024,8 hPa 0,0 mm O 82 19,3 km/h (3 Bft)
25.02.2018 10:50 -7,2 C 74 % 1024,7 hPa 0,0 mm O 101 24,1 km/h (4 Bft)
25.02.2018 10:55 -7,4 C 75 % 1024,7 hPa 0,0 mm O 88 22,5 km/h (4 Bft)
25.02.2018 11:00 -7,3 C 74 % 1024,7 hPa 0,0 mm O 84 24,1 km/h (4 Bft)
25.02.2018 11:05 -7,3 C 75 % 1024,7 hPa 0,0 mm O 83 22,5 km/h (4 Bft)
25.02.2018 11:10 -6,9 C 75 % 1024,7 hPa 0,0 mm O-NO 69 22,5 km/h (4 Bft)
25.02.2018 11:14 -7,4 C 73 % 1024,6 hPa 0,0 mm O-NO 65 25,7 km/h (4 Bft)
25.02.2018 11:20 -7,6 C 73 % 1024,7 hPa 0,0 mm O 79 24,1 km/h (4 Bft)
25.02.2018 11:25 -7,6 C 73 % 1024,6 hPa 0,0 mm O-NO 71 20,9 km/h (4 Bft)
25.02.2018 11:29 -7,5 C 74 % 1024,5 hPa 0,0 mm O-NO 57 20,9 km/h (4 Bft)
25.02.2018 11:35 -7,4 C 74 % 1024,6 hPa 0,0 mm NO 55 27,4 km/h (4 Bft)
25.02.2018 11:40 -7,4 C 73 % 1024,5 hPa 0,0 mm NO 52 22,5 km/h (4 Bft)
25.02.2018 11:45 -7,3 C 74 % 1024,5 hPa 0,0 mm O-NO 76 19,3 km/h (3 Bft)
25.02.2018 11:50 -7,3 C 74 % 1024,5 hPa 0,0 mm O-NO 70 20,9 km/h (4 Bft)
25.02.2018 11:55 -7,1 C 72 % 1024,3 hPa 0,0 mm O-NO 63 22,5 km/h (4 Bft)
25.02.2018 12:00 -6,8 C 73 % 1024,2 hPa 0,0 mm O 99 20,9 km/h (4 Bft)
25.02.2018 12:05 -6,6 C 72 % 1024,1 hPa 0,0 mm O-NO 64 22,5 km/h (4 Bft)
25.02.2018 12:10 -6,3 C 70 % 1024,1 hPa 0,0 mm O 82 24,1 km/h (4 Bft)
25.02.2018 12:14 -6,2 C 71 % 1024,1 hPa 0,0 mm O 89 20,9 km/h (4 Bft)
25.02.2018 12:20 -6,2 C 71 % 1024,0 hPa 0,0 mm O-NO 75 20,9 km/h (4 Bft)
25.02.2018 12:25 -6,0 C 70 % 1024,0 hPa 0,0 mm O-SO 105 20,9 km/h (4 Bft)
25.02.2018 12:30 -5,9 C 70 % 1023,9 hPa 0,0 mm O-NO 67 20,9 km/h (4 Bft)
25.02.2018 12:35 -6,3 C 71 % 1023,9 hPa 0,0 mm O 79 24,1 km/h (4 Bft)
25.02.2018 12:40 -5,7 C 73 % 1023,9 hPa 0,0 mm O 94 20,9 km/h (4 Bft)
25.02.2018 12:45 -5,8 C 71 % 1023,8 hPa 0,0 mm O 90 16,1 km/h (3 Bft)
25.02.2018 12:50 -5,6 C 71 % 1023,8 hPa 0,0 mm O 82 24,1 km/h (4 Bft)
25.02.2018 12:55 -5,9 C 71 % 1023,7 hPa 0,0 mm O 96 20,9 km/h (4 Bft)
25.02.2018 13:00 -5,8 C 70 % 1023,7 hPa 0,0 mm O-SO 111 24,1 km/h (4 Bft)
25.02.2018 13:05 -5,7 C 72 % 1023,7 hPa 0,0 mm O 83 27,4 km/h (4 Bft)
25.02.2018 13:10 -6,0 C 70 % 1023,7 hPa 0,0 mm O 94 24,1 km/h (4 Bft)
25.02.2018 13:14 -5,9 C 70 % 1023,6 hPa 0,0 mm O-SO 105 20,9 km/h (4 Bft)
25.02.2018 13:20 -5,9 C 71 % 1023,7 hPa 0,0 mm O 98 22,5 km/h (4 Bft)
25.02.2018 13:25 -6,0 C 71 % 1023,7 hPa 0,0 mm O 90 25,7 km/h (4 Bft)
25.02.2018 13:30 -5,8 C 70 % 1023,7 hPa 0,0 mm O 94 20,9 km/h (4 Bft)
25.02.2018 13:35 -5,7 C 71 % 1023,6 hPa 0,0 mm O-SO 109 25,7 km/h (4 Bft)
25.02.2018 13:40 -5,7 C 71 % 1023,5 hPa 0,0 mm O-SO 111 20,9 km/h (4 Bft)
25.02.2018 13:45 -5,7 C 72 % 1023,5 hPa 0,0 mm O 101 25,7 km/h (4 Bft)
25.02.2018 13:50 -5,4 C 72 % 1023,4 hPa 0,0 mm O 80 24,1 km/h (4 Bft)
25.02.2018 13:55 -5,6 C 70 % 1023,4 hPa 0,0 mm O-SO 115 20,9 km/h (4 Bft)
25.02.2018 14:00 -5,6 C 71 % 1023,3 hPa 0,0 mm O 84 19,3 km/h (3 Bft)
25.02.2018 14:05 -5,7 C 71 % 1023,4 hPa 0,0 mm O 96 22,5 km/h (4 Bft)
25.02.2018 14:10 -5,7 C 71 % 1023,3 hPa 0,0 mm SO 126 20,9 km/h (4 Bft)
25.02.2018 14:15 -5,8 C 72 % 1023,3 hPa 0,0 mm SO 144 19,3 km/h (3 Bft)
25.02.2018 14:20 -5,7 C 71 % 1023,3 hPa 0,0 mm O 80 22,5 km/h (4 Bft)
25.02.2018 14:25 -5,7 C 72 % 1022,8 hPa 0,0 mm O-NO 76 22,5 km/h (4 Bft)
25.02.2018 14:30 -5,7 C 71 % 1022,9 hPa 0,0 mm O 92 17,7 km/h (3 Bft)
25.02.2018 14:35 -5,6 C 71 % 1023,3 hPa 0,0 mm O 89 20,9 km/h (4 Bft)
25.02.2018 14:40 -5,7 C 71 % 1023,2 hPa 0,0 mm O 86 19,3 km/h (3 Bft)
25.02.2018 14:45 -5,5 C 72 % 1023,2 hPa 0,0 mm O 86 20,9 km/h (4 Bft)
25.02.2018 14:50 -5,6 C 71 % 1023,1 hPa 0,0 mm O 96 24,1 km/h (4 Bft)
25.02.2018 14:55 -5,8 C 70 % 1023,2 hPa 0,0 mm O-NO 78 20,9 km/h (4 Bft)
25.02.2018 15:00 -5,8 C 70 % 1023,1 hPa 0,0 mm O 98 19,3 km/h (3 Bft)
25.02.2018 15:05 -5,8 C 71 % 1023,2 hPa 0,0 mm O 81 24,1 km/h (4 Bft)
25.02.2018 15:10 -5,8 C 70 % 1023,2 hPa 0,0 mm O 88 20,9 km/h (4 Bft)
25.02.2018 15:15 -5,9 C 70 % 1023,1 hPa 0,0 mm O-NO 78 20,9 km/h (4 Bft)
25.02.2018 15:20 -5,8 C 70 % 1023,0 hPa 0,0 mm O-SO 107 20,9 km/h (4 Bft)
25.02.2018 15:25 -5,9 C 71 % 1023,0 hPa 0,0 mm O-NO 64 20,9 km/h (4 Bft)
25.02.2018 15:30 -5,9 C 70 % 1023,1 hPa 0,0 mm O 90 22,5 km/h (4 Bft)
25.02.2018 15:35 -5,9 C 69 % 1023,0 hPa 0,0 mm O 93 25,7 km/h (4 Bft)
25.02.2018 15:40 -6,0 C 69 % 1023,1 hPa 0,0 mm O 94 20,9 km/h (4 Bft)
25.02.2018 15:45 -6,0 C 69 % 1023,1 hPa 0,0 mm O 83 20,9 km/h (4 Bft)
25.02.2018 15:50 -5,9 C 69 % 1023,1 hPa 0,0 mm O-SO 106 17,7 km/h (3 Bft)
25.02.2018 15:55 -5,9 C 69 % 1023,2 hPa 0,0 mm O 82 17,7 km/h (3 Bft)
25.02.2018 16:00 -6,0 C 69 % 1023,1 hPa 0,0 mm O-NO 73 19,3 km/h (3 Bft)
25.02.2018 16:05 -6,0 C 69 % 1023,1 hPa 0,0 mm O 86 22,5 km/h (4 Bft)
25.02.2018 16:10 -6,1 C 69 % 1023,2 hPa 0,0 mm N-NO 15 20,9 km/h (4 Bft)
25.02.2018 16:15 -6,2 C 69 % 1023,1 hPa 0,0 mm O-NO 61 17,7 km/h (3 Bft)
25.02.2018 16:20 -6,4 C 70 % 1023,1 hPa 0,0 mm O-NO 75 19,3 km/h (3 Bft)
25.02.2018 16:25 -6,4 C 69 % 1023,1 hPa 0,0 mm O-NO 67 19,3 km/h (3 Bft)
25.02.2018 16:30 -6,6 C 70 % 1023,1 hPa 0,0 mm O-NO 65 19,3 km/h (3 Bft)
25.02.2018 16:35 -6,6 C 70 % 1023,1 hPa 0,0 mm O-NO 78 19,3 km/h (3 Bft)
25.02.2018 16:40 -6,7 C 69 % 1023,1 hPa 0,0 mm O-NO 76 17,7 km/h (3 Bft)
25.02.2018 16:45 -6,7 C 70 % 1023,1 hPa 0,0 mm O-NO 63 20,9 km/h (4 Bft)
25.02.2018 16:50 -6,8 C 70 % 1023,1 hPa 0,0 mm O-NO 69 17,7 km/h (3 Bft)
25.02.2018 16:55 -6,8 C 71 % 1023,1 hPa 0,0 mm O 82 20,9 km/h (4 Bft)
25.02.2018 17:00 -6,9 C 71 % 1023,1 hPa 0,0 mm O-NO 69 20,9 km/h (4 Bft)
25.02.2018 17:05 -6,9 C 71 % 1023,1 hPa 0,0 mm O-NO 71 22,5 km/h (4 Bft)
25.02.2018 17:10 -6,9 C 71 % 1023,2 hPa 0,0 mm O-NO 63 22,5 km/h (4 Bft)
25.02.2018 17:15 -7,0 C 71 % 1023,2 hPa 0,0 mm O-NO 60 20,9 km/h (4 Bft)
25.02.2018 17:20 -7,1 C 70 % 1023,3 hPa 0,0 mm O-NO 59 17,7 km/h (3 Bft)
25.02.2018 17:25 -7,2 C 71 % 1023,3 hPa 0,0 mm O-NO 61 22,5 km/h (4 Bft)
25.02.2018 17:30 -7,3 C 70 % 1023,4 hPa 0,0 mm O-NO 67 20,9 km/h (4 Bft)
25.02.2018 17:35 -7,5 C 72 % 1023,3 hPa 0,0 mm O-NO 67 16,1 km/h (3 Bft)
25.02.2018 17:40 -7,5 C 71 % 1023,4 hPa 0,0 mm O-NO 67 16,1 km/h (3 Bft)
25.02.2018 17:45 -7,6 C 71 % 1023,4 hPa 0,0 mm O-NO 70 17,7 km/h (3 Bft)
25.02.2018 17:50 -7,7 C 71 % 1023,5 hPa 0,0 mm O-NO 74 16,1 km/h (3 Bft)
25.02.2018 17:55 -8,0 C 72 % 1023,6 hPa 0,0 mm O-NO 72 12,9 km/h (3 Bft)
25.02.2018 18:00 -8,1 C 72 % 1023,7 hPa 0,0 mm O-NO 71 14,5 km/h (3 Bft)
25.02.2018 18:05 -8,1 C 72 % 1023,7 hPa 0,0 mm O-NO 77 12,9 km/h (3 Bft)
25.02.2018 18:10 -8,0 C 71 % 1023,8 hPa 0,0 mm O-NO 73 12,9 km/h (3 Bft)
25.02.2018 18:15 -8,2 C 71 % 1023,9 hPa 0,0 mm O 80 12,9 km/h (3 Bft)
25.02.2018 18:20 -8,2 C 70 % 1024,0 hPa 0,0 mm O-NO 70 11,3 km/h (2 Bft)
25.02.2018 18:25 -8,1 C 70 % 1024,0 hPa 0,0 mm O-NO 67 12,9 km/h (3 Bft)
25.02.2018 18:30 -8,1 C 69 % 1024,0 hPa 0,0 mm O-NO 75 17,7 km/h (3 Bft)
25.02.2018 18:35 -7,9 C 68 % 1024,0 hPa 0,0 mm O 97 16,1 km/h (3 Bft)
25.02.2018 18:40 -8,0 C 68 % 1024,0 hPa 0,0 mm O 80 14,5 km/h (3 Bft)
25.02.2018 18:45 -8,3 C 69 % 1024,0 hPa 0,0 mm NO 43 11,3 km/h (2 Bft)
25.02.2018 18:50 -8,1 C 68 % 1024,1 hPa 0,0 mm NO 55 12,9 km/h (3 Bft)
25.02.2018 18:55 -8,3 C 68 % 1024,1 hPa 0,0 mm O-NO 72 11,3 km/h (2 Bft)
25.02.2018 19:00 -8,4 C 69 % 1024,1 hPa 0,0 mm NO 56 14,5 km/h (3 Bft)
25.02.2018 19:05 -8,3 C 69 % 1024,1 hPa 0,0 mm O-NO 69 16,1 km/h (3 Bft)
25.02.2018 19:10 -8,5 C 70 % 1024,0 hPa 0,0 mm O-NO 61 14,5 km/h (3 Bft)
25.02.2018 19:15 -8,4 C 70 % 1024,1 hPa 0,0 mm O-NO 61 17,7 km/h (3 Bft)
25.02.2018 19:20 -8,3 C 69 % 1024,2 hPa 0,0 mm O-NO 61 16,1 km/h (3 Bft)
25.02.2018 19:25 -8,3 C 69 % 1024,1 hPa 0,0 mm NO 50 16,1 km/h (3 Bft)
25.02.2018 19:30 -8,3 C 69 % 1024,1 hPa 0,0 mm O-NO 59 16,1 km/h (3 Bft)
25.02.2018 19:35 -8,4 C 69 % 1024,0 hPa 0,0 mm O 91 16,1 km/h (3 Bft)
25.02.2018 19:40 -8,4 C 69 % 1024,1 hPa 0,0 mm O-NO 70 17,7 km/h (3 Bft)
25.02.2018 19:45 -8,3 C 68 % 1024,1 hPa 0,0 mm O-NO 72 16,1 km/h (3 Bft)
25.02.2018 19:50 -8,2 C 68 % 1024,2 hPa 0,0 mm O-NO 61 16,1 km/h (3 Bft)
25.02.2018 19:55 -8,2 C 68 % 1024,3 hPa 0,0 mm O 86 16,1 km/h (3 Bft)
25.02.2018 20:00 -8,2 C 68 % 1024,3 hPa 0,0 mm O-NO 78 20,9 km/h (4 Bft)
25.02.2018 20:05 -8,3 C 68 % 1024,3 hPa 0,0 mm O 81 16,1 km/h (3 Bft)
25.02.2018 20:10 -8,6 C 69 % 1024,4 hPa 0,0 mm O-NO 64 14,5 km/h (3 Bft)
25.02.2018 20:15 -8,4 C 69 % 1024,3 hPa 0,0 mm O 89 12,9 km/h (3 Bft)
25.02.2018 20:20 -8,5 C 70 % 1024,3 hPa 0,0 mm O-NO 71 12,9 km/h (3 Bft)
25.02.2018 20:25 -8,4 C 70 % 1024,4 hPa 0,0 mm O-NO 75 16,1 km/h (3 Bft)
25.02.2018 20:30 -8,7 C 70 % 1024,4 hPa 0,0 mm O 80 12,9 km/h (3 Bft)
25.02.2018 20:35 -8,7 C 71 % 1024,4 hPa 0,0 mm NO 47 12,9 km/h (3 Bft)
25.02.2018 20:40 -8,9 C 71 % 1024,4 hPa 0,0 mm O-NO 74 12,9 km/h (3 Bft)
25.02.2018 20:45 -9,0 C 72 % 1024,4 hPa 0,0 mm O-NO 71 12,9 km/h (3 Bft)
25.02.2018 20:50 -8,8 C 71 % 1024,3 hPa 0,0 mm O-NO 67 17,7 km/h (3 Bft)
25.02.2018 20:55 -8,8 C 71 % 1024,3 hPa 0,0 mm O-NO 69 16,1 km/h (3 Bft)
25.02.2018 21:00 -8,7 C 71 % 1024,3 hPa 0,0 mm O-NO 69 20,9 km/h (4 Bft)
25.02.2018 21:05 -8,7 C 71 % 1024,3 hPa 0,0 mm O 82 20,9 km/h (4 Bft)
25.02.2018 21:10 -8,6 C 70 % 1024,3 hPa 0,0 mm O-NO 78 22,5 km/h (4 Bft)
25.02.2018 21:15 -8,6 C 70 % 1024,2 hPa 0,0 mm O 82 20,9 km/h (4 Bft)
25.02.2018 21:20 -8,6 C 70 % 1024,3 hPa 0,0 mm O-NO 76 24,1 km/h (4 Bft)
25.02.2018 21:25 -8,5 C 70 % 1024,3 hPa 0,0 mm O-NO 59 25,7 km/h (4 Bft)
25.02.2018 21:30 -8,5 C 70 % 1024,3 hPa 0,0 mm O 101 22,5 km/h (4 Bft)
25.02.2018 21:35 -8,6 C 70 % 1024,3 hPa 0,0 mm O 80 22,5 km/h (4 Bft)
25.02.2018 21:40 -8,6 C 70 % 1024,3 hPa 0,0 mm O-NO 70 24,1 km/h (4 Bft)
25.02.2018 21:45 -8,7 C 71 % 1024,3 hPa 0,0 mm O-NO 69 24,1 km/h (4 Bft)
25.02.2018 21:50 -8,7 C 71 % 1024,2 hPa 0,0 mm O 90 22,5 km/h (4 Bft)
25.02.2018 21:55 -8,7 C 71 % 1024,1 hPa 0,0 mm O 101 22,5 km/h (4 Bft)
25.02.2018 22:00 -8,6 C 71 % 1024,2 hPa 0,0 mm O-NO 67 29,0 km/h (5 Bft)
25.02.2018 22:05 -8,7 C 71 % 1024,2 hPa 0,0 mm O-NO 78 22,5 km/h (4 Bft)
25.02.2018 22:10 -8,9 C 71 % 1024,3 hPa 0,0 mm O-NO 65 24,1 km/h (4 Bft)
25.02.2018 22:15 -9,0 C 72 % 1024,3 hPa 0,0 mm O-NO 73 17,7 km/h (3 Bft)
25.02.2018 22:20 -9,2 C 72 % 1024,3 hPa 0,0 mm O 80 16,1 km/h (3 Bft)
25.02.2018 22:25 -9,3 C 73 % 1024,3 hPa 0,0 mm O 100 12,9 km/h (3 Bft)
25.02.2018 22:30 -9,3 C 73 % 1024,4 hPa 0,0 mm O-NO 62 14,5 km/h (3 Bft)
25.02.2018 22:35 -9,3 C 73 % 1024,3 hPa 0,0 mm O 85 14,5 km/h (3 Bft)
25.02.2018 22:40 -9,3 C 73 % 1024,4 hPa 0,0 mm O-SO 105 12,9 km/h (3 Bft)
25.02.2018 22:45 -9,3 C 73 % 1024,3 hPa 0,0 mm O-NO 78 14,5 km/h (3 Bft)
25.02.2018 22:50 -9,4 C 73 % 1024,3 hPa 0,0 mm O-NO 71 12,9 km/h (3 Bft)
25.02.2018 22:55 -9,4 C 74 % 1024,3 hPa 0,0 mm O-NO 73 16,1 km/h (3 Bft)
25.02.2018 23:00 -9,5 C 74 % 1024,3 hPa 0,0 mm O-NO 67 17,7 km/h (3 Bft)
25.02.2018 23:05 -9,6 C 74 % 1024,3 hPa 0,0 mm O-NO 73 12,9 km/h (3 Bft)
25.02.2018 23:10 -9,7 C 74 % 1024,4 hPa 0,0 mm O-NO 71 12,9 km/h (3 Bft)
25.02.2018 23:15 -9,6 C 74 % 1024,3 hPa 0,0 mm O-NO 61 16,1 km/h (3 Bft)
25.02.2018 23:20 -9,5 C 73 % 1024,3 hPa 0,0 mm O-NO 69 16,1 km/h (3 Bft)
25.02.2018 23:25 -9,5 C 73 % 1024,2 hPa 0,0 mm O-NO 73 17,7 km/h (3 Bft)
25.02.2018 23:30 -9,4 C 72 % 1024,3 hPa 0,0 mm O-NO 77 16,1 km/h (3 Bft)
25.02.2018 23:35 -9,4 C 71 % 1024,2 hPa 0,0 mm O-NO 70 16,1 km/h (3 Bft)
25.02.2018 23:40 -9,4 C 71 % 1024,2 hPa 0,0 mm O-NO 67 14,5 km/h (3 Bft)
25.02.2018 23:45 -9,6 C 72 % 1024,2 hPa 0,0 mm O-NO 65 17,7 km/h (3 Bft)
25.02.2018 23:50 -9,6 C 72 % 1024,2 hPa 0,0 mm O-NO 69 19,3 km/h (3 Bft)
25.02.2018 23:55 -9,6 C 73 % 1024,2 hPa 0,0 mm O-NO 71 16,1 km/h (3 Bft)
_ Min-Zeit 07:25 18:35 14:25 - - - 18:20
Minimum _ -9,9 C 68 % 1022,8 hPa - - - 11,3 km/h (2 Bft)
_ Max-Zeit 13:50 05:05 09:35 00:00 - - 00:00
Maximum _ -5,4 C 83 % 1024,9 hPa 0,0 mm - - 29,0 km/h
O-NO (5 Bft)
Durchschnitt _ -7,9 C 75 % 1024,0 hPa #0,0 mm O-NO - 20,1 km/h (4 Bft)